Showing default

GSAT 18, 41793

Orbit data source: Space-Track

GSAT 18, 41793 is a payload satellite owned by ISRO (IN) in GEO that was launched on Wed, 05 Oct 2016 UTC via an ARIANE 5ECA launch vehicle from the French Guiana (FRGUI). Payload-class satellites include a variety of spacecraft equipped with specific instruments for various scientific and technological missions. These include communications satellites like Starlink; space stations such as the ISS; scientific satellites like the Hubble; Earth observation satellites from companies like Planet Labs, Umbra, and HawkEye 360; GPS; miniature CubeSats for education and research; and military/defense satellites.

Not visible in the next 10 days
Identifier
41793, 2016-060A
Orbit
GEO
Country
Flag of ININ / IND
Related business
Manufacturer
ISRO SAC/Banga
Mission
Operational Civil Communications
Bus & Motor
I3K, ISRO LAM
Mass
3,404 kg wet, ~1,200 kg dry
Launch date (UTC)
2016-10-05 (9 years ago)
Launch vehicle
ARIANE 5ECA
Launch site
French Guiana (FRGUI)
Object type
Payload
Rocket body
Debris
Shape & HBR
Box + 2 Pan, 7.8 m
Radar Cross Section
13.026 m²

Expand to show TLE details & history
Last TLE update: 10 hours ago

TLE from 10 hours ago
0 GSAT 18
1 41793U 16060A   25259.17019941  .00000000  00000-0  00000-0 0  9992
2 41793   0.0215 164.4000 0001791 263.2068  62.9716  1.00269746 32780
Epoch: 2025-09-16T04:05Z
TLE epoch observation values (Epoch: 2025-09-16T04:05:05.229Z)
Latitude
-0.02139°
Longitude
73.96042°
Altitude
35,783.253 km
Speed
3.075 km/s
True Right ascension
08h 42m 23s
True Declination
0° 01' 17"
Sunlit
Object was in daylight at epoch
Visualization orbit readout
Latitude
Unknown
Longitude
Unknown
Altitude
Unknown
Speed
Unknown
Apparent Right ascension
Unknown
Apparent Declination
Unknown
Sunlit
N/A
Visualization observer readout
Local Sidereal Time
06:57:51
Azimuth
Unknown
Elevation
Unknown
Doppler factor
Unknown
Orbital elements
Apogee altitude
35,795.789 km
Perigee altitude
35,780.685 km
Semi-major axis
42,166.374 km
Eccentricity
0.00018
Inclination
0.0215°
RAAN
164.4°
Arg. of periapsis
263.2068°
True anomaly
62.98988°
Mean anomaly
62.9716°
Eccentric anomaly
62.98074°
Mean motion
0.25067 °/min
Orbital period
1,436.18 mins
BSTAR
0
Loading maneuver chart data...
Computing Atmospheric mass density...
Loading historical data...
Loading historical data...
Loading historical data...
Loading historical data...
Loading historical data...
Loading historical data...
Loading historical data...
Other satellites on launch #60 in the year 2016 (2016-10-05 UTC)

Documentation

Showing up to 5 results
|